[[{"header":{"parameterUnit":"m.s-1","parameterCategory":1,"la1":30.2991,"la2":30.254,"lo1":-89.0895,"lo2":-89.0444,"dy":0.0017,"dx":0.0017,"nx":28,"ny":28,"refTime":"2025-07-18T21:00:00:Z","depth":0,"parameterNumber":2,"parameterNumberName":"U-component_of_WINDS"},"data":[0,0,0,0,0,0,0,0,0,0,0,0,0,0,0,0,0,0,0,0,0,0,0,0,0,0,0,0,0,0,0,0,0,0,0,0,0,0,0,0,0,0,0,0,0,0,0,0,0,0,0,0,0,0,0,0,0,0,3.3825,3.3826,0,3.3868,3.3868,3.3869,3.3802,3.3799,3.3797,3.3795,3.3838,3.3841,3.3844,0,0,0,0,0,0,0,0,0,0,0,0,0,3.3685,3.3688,3.3825,3.3826,3.3826,3.3868,3.3868,3.3869,3.3802,3.3799,3.3797,3.3794,3.3837,3.3841,3.3845,0,0,0,0,0,0,0,0,0,0,0,0,0,3.3738,3.3689,3.3825,3.3798,3.3796,3.3868,3.3868,3.3869,3.3803,3.3799,3.3796,3.3793,3.3835,3.384,3.3845,3.3945,0,0,3.386,3.3862,0,0,0,0,0,0,0,0,3.3735,3.3744,3.3802,3.38,3.3798,3.3826,3.3834,3.3894,3.3804,3.38,3.3795,3.3791,3.3837,3.3841,3.3857,3.3947,3.3949,3.3861,3.3864,3.3866,3.3867,0,0,0,0,0,0,0,3.3732,3.3741,3.3842,3.3803,3.38,3.3783,3.3787,3.3845,3.3837,3.38,3.3796,3.3801,3.3835,3.3852,3.3857,3.3949,3.3861,3.3865,3.3868,3.387,3.4119,3.4122,0,0,0,0,0,0,3.3731,3.3739,3.3841,3.3843,3.3758,3.3788,3.3793,3.382,3.3837,3.3836,3.3804,3.3798,3.3845,3.3852,3.3859,3.3973,3.3866,3.387,3.3873,3.4115,3.412,3.4124,0,0,0,0,0,0,3.3729,3.3741,3.3839,3.379,3.3801,3.3795,3.3826,3.3823,3.384,3.384,3.3838,3.3823,3.3843,3.3852,3.3923,3.3973,3.3873,3.3877,3.4111,3.4117,3.4122,3.4204,0,0,0,0,0,0,3.3725,3.3741,3.3779,3.3791,3.3804,3.3904,3.383,3.3826,3.3849,3.3841,3.3857,3.3856,3.3841,3.3916,3.3928,3.3978,3.3881,3.4106,3.4113,3.412,3.4197,3.4212,3.4225,0,0,0,0,0,3.372,3.3802,3.3782,3.3794,3.3852,3.3907,3.3914,3.3895,3.3853,3.3891,3.389,3.3856,3.3967,3.3924,3.3937,3.3989,3.4103,3.4111,3.4119,3.4191,3.4209,3.4224,0,0,0,0,0,0,3.3796,3.3803,3.378,3.3868,3.3887,3.3895,3.3942,3.3915,3.3946,3.3938,3.3913,3.3917,3.3992,3.3999,3.3951,3.4085,3.4028,3.4039,3.4077,3.4095,3.4108,3.4104,3.3885,0,0,0,0,0,3.3823,3.3868,3.3871,3.3948,3.3959,3.3949,3.3973,3.3956,3.3975,3.3982,3.3987,3.4006,3.4044,3.407,3.4106,3.4198,3.4199,3.4241,3.4255,3.4266,3.4275,3.432,3.4337,3.4151,3.415,3.415,0,0,3.388,3.3889,3.3918,3.3964,3.3976,3.4021,3.3957,3.4008,3.4041,3.399,3.4056,3.4061,3.408,3.4161,3.4197,3.4168,3.4327,3.4276,3.4286,3.4288,3.433,3.4348,3.4363,3.4156,3.4155,3.4154,0,0,3.4004,3.4017,3.408,3.4094,3.4114,3.4107,3.4122,3.4134,3.4134,3.4201,3.4163,3.4201,3.427,3.4283,3.43,3.4427,3.4395,3.444,3.4511,3.4555,3.457,3.4583,3.4625,3.464,3.445,3.445,3.445,0,3.4071,3.4138,3.4117,3.417,3.4189,3.4145,3.4208,3.4223,3.4254,3.4267,3.4236,3.4317,3.4328,3.441,3.444,3.4457,3.4471,3.4437,3.457,3.4583,3.4594,3.4633,3.465,3.4455,3.4454,3.4454,3.4453,0,3.4217,3.4264,3.4313,3.4342,3.4368,3.4426,3.4412,3.4441,3.4422,3.4417,3.4484,3.4495,3.453,3.4549,3.4532,3.4627,3.4608,3.4574,3.4516,3.4617,3.4653,3.4669,3.4462,3.446,3.4459,3.4458,0,0,3.439,3.4406,3.4424,3.4434,3.4453,3.4488,3.4543,3.4577,3.46,3.4623,3.4666,3.4724,3.4691,3.471,3.4694,3.4733,3.4828,3.4693,3.4693,3.4714,3.493,3.4953,3.4971,3.4809,3.4812,3.4814,3.4927,0,3.4511,3.4605,3.4586,3.4678,3.4719,3.4677,3.4724,3.474,3.4737,3.4771,3.4768,3.4808,3.4764,3.4774,3.4811,3.4809,3.4871,3.4801,3.4846,3.4848,3.4839,3.4991,3.5016,3.5122,3.4941,3.4944,3.4946,0,3.4664,3.469,3.4786,3.4793,3.481,3.4853,3.4881,3.4915,3.4931,3.4926,3.4945,3.4921,3.4974,3.4917,3.4988,3.4941,3.4958,3.496,3.4964,3.4964,3.49,3.4992,3.5156,3.517,3.4969,3.4967,3.4965,0,3.4775,3.4835,3.4898,3.491,3.4922,3.4953,3.4959,3.4972,3.4992,3.5017,3.503,3.5061,3.5077,3.5102,3.5085,3.5047,3.5158,3.5101,3.5153,3.5153,3.5175,3.5173,3.5341,3.5193,3.5193,3.5193,3.5192,0,3.4909,3.4968,3.4948,3.4987,3.505,3.5029,3.5092,3.5094,3.5105,3.5142,3.511,3.5145,3.5124,3.5157,3.5146,3.5203,3.5212,3.5208,3.5203,3.5209,3.5209,3.5217,3.5208,3.5197,3.5196,3.5195,3.5195,0,3.5043,3.5032,3.5098,3.5104,3.5106,3.5153,3.5157,3.5192,3.5187,3.5234,3.5244,3.5236,3.5273,3.526,3.5301,3.5293,3.5366,3.5354,3.536,3.5355,3.5406,3.54,3.5582,3.5603,3.5446,3.5448,3.5449,0,3.5127,3.5171,3.5181,3.5203,3.5211,3.5249,3.5269,3.5249,3.5271,3.5291,3.5323,3.5358,3.5384,3.5445,3.5442,3.5472,3.5458,3.552,3.5463,3.5465,3.5454,3.545,3.5453,3.553,3.5532,3.5534,3.5535,0,3.5277,3.5269,3.5299,3.5327,3.5352,3.5374,3.5392,3.5412,3.5393,3.542,3.5457,3.5477,3.5518,3.5551,3.5578,3.5583,3.5555,3.5554,3.5566,3.557,3.557,3.5567,3.5387,3.5549,3.5547,3.5546,3.5546,3.5545,3.5386,3.5421,3.5432,3.5466,3.5478,3.5495,3.5527,3.5526,3.5557,3.5587,3.5574,3.5616,3.5628,3.5661,3.5671,3.5703,3.5678,3.5698,3.5702,3.5707,3.5711,3.5568,3.5708,3.5708,3.5707,3.5707,3.5707,0,3.5529,3.5534,3.5566,3.5592,3.5618,3.559,3.5609,3.5632,3.5669,3.5684,3.5709,3.5751,3.5783,3.5782,3.5811,3.5836,3.5824,3.5844,3.584,3.5841,3.5733,3.5717,3.5854,3.5854,3.5854,3.5854,3.5854,3.5853,3.5607,3.5664,3.5657,3.5719,3.5724,3.5764,3.5776,3.5791,3.5802,3.5849,3.5875,3.5875,3.5882,3.5911,3.5938,3.5937,3.5948,3.5972,3.5966,3.5864,3.5849,3.5835,3.582,3.5976,3.5976,3.6071,3.6072,3.6072]},{"header":{"parameterUnit":"m.s-1","parameterCategory":1,"la1":30.2991,"la2":30.254,"lo1":-89.0895,"lo2":-89.0444,"dy":0.0017,"dx":0.0017,"nx":28,"ny":28,"refTime":"2025-07-18T21:00:00:Z","depth":0,"parameterNumber":3,"parameterNumberName":"V-component_of_WINDS"},"data":[0,0,0,0,0,0,0,0,0,0,0,0,0,0,0,0,0,0,0,0,0,0,0,0,0,0,0,0,0,0,0,0,0,0,0,0,0,0,0,0,0,0,0,0,0,0,0,0,0,0,0,0,0,0,0,0,0,0,3.5729,3.573,0,3.5791,3.5792,3.5792,3.5764,3.5762,3.5761,3.5759,3.5819,3.5822,3.5825,0,0,0,0,0,0,0,0,0,0,0,0,0,3.5583,3.5585,3.5729,3.573,3.5731,3.5791,3.5792,3.5793,3.5764,3.5762,3.576,3.5758,3.5818,3.5822,3.5826,0,0,0,0,0,0,0,0,0,0,0,0,0,3.5645,3.5586,3.5729,3.5724,3.5724,3.5791,3.5792,3.5793,3.5764,3.5762,3.576,3.5757,3.5817,3.5822,3.5826,3.5901,0,0,3.584,3.5842,0,0,0,0,0,0,0,0,3.5642,3.5651,3.5724,3.5724,3.5725,3.5767,3.5762,3.5829,3.5765,3.5749,3.5759,3.5756,3.5804,3.5809,3.5826,3.5904,3.5906,3.5841,3.5843,3.5845,3.5847,0,0,0,0,0,0,0,3.5638,3.5648,3.5754,3.5725,3.5726,3.5717,3.5723,3.5775,3.5789,3.575,3.5748,3.5756,3.5803,3.5822,3.5827,3.5907,3.584,3.5844,3.5847,3.5849,3.6046,3.6048,0,0,0,0,0,0,3.5634,3.5645,3.5752,3.5756,3.5677,3.5722,3.5729,3.5756,3.5788,3.5791,3.5758,3.5754,3.5815,3.5822,3.5829,3.5916,3.5845,3.585,3.5852,3.6043,3.6046,3.6049,0,0,0,0,0,0,3.5631,3.5644,3.5749,3.57,3.5712,3.5727,3.5757,3.5758,3.5776,3.5794,3.5796,3.5774,3.5813,3.5823,3.5883,3.5918,3.5852,3.5856,3.604,3.6044,3.6048,3.6093,0,0,0,0,0,0,3.5627,3.5643,3.5673,3.5701,3.5715,3.5803,3.576,3.5761,3.5785,3.5781,3.581,3.5812,3.5812,3.5876,3.5887,3.5923,3.5859,3.6037,3.6042,3.6047,3.6088,3.6098,3.6106,0,0,0,0,0,3.5622,3.5683,3.5674,3.5687,3.5753,3.5806,3.5814,3.5813,3.5788,3.5817,3.5827,3.5811,3.5913,3.5882,3.5895,3.5933,3.6035,3.6041,3.6046,3.6085,3.6096,3.6106,0,0,0,0,0,0,3.5659,3.5687,3.5677,3.575,3.5776,3.5801,3.5837,3.5826,3.5859,3.5854,3.5851,3.5858,3.592,3.5932,3.5898,3.6005,3.597,3.5978,3.5995,3.6006,3.6014,3.6009,3.5863,0,0,0,0,0,3.5675,3.5717,3.5739,3.58,3.5814,3.5823,3.5846,3.5844,3.587,3.5881,3.5896,3.5921,3.5958,3.5983,3.6018,3.609,3.6095,3.6122,3.6131,3.6138,3.6145,3.6181,3.6193,3.6067,3.6067,3.6067,0,0,3.571,3.573,3.5757,3.5808,3.5828,3.5869,3.5833,3.5879,3.5909,3.5887,3.5944,3.5956,3.5984,3.605,3.6079,3.6062,3.6181,3.6145,3.6151,3.6154,3.6188,3.62,3.6211,3.6071,3.607,3.607,0,0,3.5794,3.5815,3.5867,3.5887,3.5918,3.5923,3.5936,3.5962,3.5969,3.6027,3.6011,3.6046,3.6111,3.613,3.6149,3.6238,3.6223,3.6249,3.6295,3.633,3.634,3.6348,3.6378,3.6389,3.6256,3.6256,3.6256,0,3.5833,3.5896,3.5896,3.5942,3.5964,3.5947,3.5998,3.6018,3.6058,3.6072,3.6053,3.6132,3.615,3.6218,3.624,3.6256,3.6268,3.6246,3.6339,3.6347,3.6355,3.6383,3.6395,3.6259,3.6259,3.6258,3.6258,0,3.5942,3.5985,3.6024,3.6063,3.6089,3.6138,3.6143,3.617,3.6164,3.6171,3.6228,3.6249,3.6287,3.6303,3.6298,3.637,3.6358,3.6339,3.6303,3.637,3.6396,3.6407,3.6263,3.6262,3.6261,3.6261,0,0,3.6052,3.6088,3.6102,3.6118,3.6149,3.6182,3.6229,3.6267,3.6288,3.6316,3.6354,3.6408,3.639,3.6411,3.6408,3.6439,3.6505,3.6415,3.6416,3.643,3.6583,3.6596,3.6609,3.6496,3.6498,3.65,3.658,0,3.6136,3.622,3.6219,3.6296,3.6334,3.6317,3.6358,3.638,3.6388,3.642,3.6428,3.6466,3.644,3.6452,3.6482,3.6491,3.6536,3.6485,3.6529,3.6531,3.6522,3.6623,3.6638,3.6713,3.659,3.6592,3.6593,0,3.6247,3.6277,3.6358,3.6381,3.6397,3.6434,3.6467,3.6499,3.6523,3.6526,3.6548,3.654,3.6585,3.6549,3.661,3.6576,3.6594,3.6601,3.6603,3.6606,3.6565,3.6627,3.6737,3.6747,3.661,3.6609,3.6607,0,3.6316,3.6378,3.6433,3.6448,3.6477,3.6502,3.6515,3.6537,3.6559,3.6587,3.6601,3.6634,3.6652,3.6677,3.6677,3.6651,3.6738,3.6702,3.674,3.674,3.6759,3.6757,3.6871,3.6773,3.6773,3.6773,3.6772,0,3.641,3.6459,3.6464,3.6498,3.6552,3.655,3.6603,3.6613,3.6632,3.6666,3.6654,3.6686,3.6685,3.6716,3.6717,3.6766,3.6775,3.6777,3.6776,3.6777,3.6777,3.6788,3.6782,3.6776,3.6775,3.6774,3.6774,0,3.6496,3.6502,3.6561,3.6583,3.6589,3.6628,3.6646,3.6677,3.6682,3.6726,3.6736,3.6744,3.6781,3.6783,3.6826,3.6826,3.6885,3.688,3.6877,3.6876,3.6913,3.6908,3.7037,3.7052,3.6945,3.6947,3.6947,0,3.6555,3.6592,3.6618,3.664,3.6655,3.6691,3.6712,3.6711,3.6734,3.6763,3.679,3.6826,3.6854,3.6913,3.6922,3.6954,3.6948,3.699,3.6953,3.6952,3.6946,3.6943,3.6946,3.6997,3.6999,3.7,3.7,0,3.6658,3.6659,3.6691,3.6724,3.6751,3.6776,3.68,3.6819,3.682,3.6846,3.6884,3.6906,3.6949,3.6983,3.7014,3.7025,3.7012,3.7012,3.7022,3.7023,3.702,3.702,3.6896,3.7009,3.7008,3.7008,3.7007,3.7007,3.6731,3.6763,3.6785,3.6821,3.6839,3.6861,3.689,3.6899,3.6931,3.6966,3.6963,3.7004,3.7024,3.7064,3.7078,3.7109,3.7094,3.7109,3.7113,3.7116,3.7119,3.7016,3.7115,3.7114,3.7114,3.7114,3.7114,0,3.6832,3.6845,3.6878,3.6912,3.6939,3.6925,3.6951,3.6974,3.701,3.7031,3.7059,3.71,3.7133,3.7145,3.7176,3.7198,3.7193,3.7206,3.7204,3.7206,3.7131,3.7119,3.721,3.721,3.721,3.721,3.721,3.721,3.6887,3.6939,3.6942,3.7001,3.7013,3.7054,3.7069,3.7088,3.7104,3.7152,3.7179,3.7186,3.7202,3.7235,3.7263,3.7266,3.7277,3.7293,3.7292,3.7222,3.7212,3.7203,3.7191,3.7296,3.7296,3.7364,3.7365,3.7365]}]]